Powrót do katalogu

STARLINK-3955

AktywnyŁącznośćVLEO
NORAD 52561·PAYLOAD·🇺🇸 United States

Wystrzelony May 13, 2022 z Vandenberg Space Force Base

Loading…

Następne Przeloty (najbliższe 24 godziny)

TLE

ŚwieżeSource: CelesTrak SupGP

Epoka: Sep 15, 2026, 02:45 UTC

1 52561C 22051AE  26258.11506944  .00046242  00000+0  13665-2 0  2580
2 52561  53.1584 350.5974 0000919  98.4305  59.7695 15.34362582    19

Śledź STARLINK-3955 w czasie rzeczywistym z AllMySat

Download on the App Store